Weather History for Clarksville, TN

Change the Weather History Date:

Wednesday, October 30, 2013

  Actual Average Record
Temperature  
Mean Temperature 70 °F -  
Max Temperature 78 °F - 89 °F (1950)
Min Temperature 62 °F - 25 °F (1952)
Degree Days  
Heating Degree Days 0    
Month to date heating degree days 220  
Since 1 July heating degree days 228  
Cooling Degree Days 5    
Month to date cooling degree days 65  
Growing Degree Days 18 (Base 50)    
Moisture  
Dew Point 59 °F    
Average Humidity 74    
Maximum Humidity 90    
Minimum Humidity 57    
Precipitation  
Precipitation T in - 1.19 in (1985)
Month to date precipitation 2.07  
Sea Level Pressure  
Sea Level Pressure 30.11 in    
Wind  
Wind Speed 8 mph (South)    
Max Wind Speed 20 mph    
Max Gust Speed 24 mph    
Visibility 10 miles    
Events      
T = Trace of Precipitation, MM = Missing Value Source: NWS Daily Summary

Daily Weather History Graph

Daily Weather History Graph

Search for Another Location

Airport:

Trip Planner

Search our weather history database for the weather conditions in past years. The results will help you decide how hot, cold, wet, or windy it might be!

Date:

Astronomy

Oct. 30, 2013 Rise Set
Actual Time 7:11 AM CDT 5:54 PM CDT
Civil Twilight 6:44 AM CDT 6:21 PM CDT
Nautical Twilight 6:14 AM CDT 6:51 PM CDT
Astronomical Twilight 5:44 AM CDT 7:21 PM CDT
Moon 3:06 AM CDT (10/30) 3:34 PM CDT (10/30)
Length of Visible Light 11h 36m
Length of Day
10h 43m
Waning Crescent, 17% of the Moon is Illuminated
Oct 30
Waning Crescent
Nov 3
New
Nov 9
First Quarter
Nov 17
Full
Nov 25
Last Quarter

Hourly Weather History & Observations

Time (CDT) Temp. Dew Point Humidity Pressure Visibility Wind Dir Wind Speed Gust Speed Precip Events Conditions
12:52 AM 62.1 °F 59.0 °F 90% 30.15 in 8.0 mi ESE 3.5 mph - N/A   Overcast
1:52 AM 62.1 °F 59.0 °F 90% 30.17 in 8.0 mi Calm Calm - N/A   Overcast
2:52 AM 62.1 °F 59.0 °F 90% 30.16 in 9.0 mi ESE 3.5 mph - N/A   Overcast
3:52 AM 64.0 °F 59.0 °F 84% 30.15 in 10.0 mi South 3.5 mph - N/A   Scattered Clouds
4:52 AM 63.0 °F 59.0 °F 87% 30.16 in 10.0 mi South 4.6 mph - N/A   Overcast
5:52 AM 63.0 °F 59.0 °F 87% 30.16 in 10.0 mi South 8.1 mph - N/A   Overcast
6:52 AM 63.0 °F 59.0 °F 87% 30.17 in 10.0 mi SSW 8.1 mph - 0.00 in   Mostly Cloudy
7:52 AM 63.0 °F 59.0 °F 87% 30.18 in 10.0 mi SSW 8.1 mph - N/A   Overcast
8:52 AM 64.9 °F 59.0 °F 81% 30.18 in 10.0 mi SSW 9.2 mph - N/A   Mostly Cloudy
9:52 AM 69.1 °F 60.1 °F 73% 30.18 in 10.0 mi SW 10.4 mph 18.4 mph N/A   Scattered Clouds
10:52 AM 73.0 °F 61.0 °F 66% 30.16 in 10.0 mi SSW 16.1 mph 19.6 mph N/A   Clear
11:52 AM 75.9 °F 61.0 °F 60% 30.13 in 10.0 mi SSW 17.3 mph - N/A   Clear
12:52 PM 75.0 °F 62.1 °F 64% 30.12 in 10.0 mi SW 11.5 mph - N/A   Mostly Cloudy
1:52 PM 75.9 °F 62.1 °F 62% 30.09 in 10.0 mi SSW 15.0 mph - N/A   Scattered Clouds
2:52 PM 75.9 °F 61.0 °F 60% 30.06 in 10.0 mi South 17.3 mph - N/A   Mostly Cloudy
3:52 PM 75.0 °F 60.1 °F 60% 30.06 in 10.0 mi SSW 9.2 mph - N/A   Clear
4:52 PM 73.9 °F 57.9 °F 57% 30.05 in 10.0 mi SSW 10.4 mph - N/A   Clear
5:52 PM 71.1 °F 57.0 °F 61% 30.05 in 10.0 mi South 5.8 mph - N/A   Clear
6:52 PM 66.9 °F 55.9 °F 68% 30.04 in 10.0 mi SSE 3.5 mph - N/A   Clear
7:52 PM 66.9 °F 57.9 °F 73% 30.05 in 10.0 mi SE 4.6 mph - N/A   Clear
8:52 PM 68.0 °F 57.9 °F 70% 30.04 in 10.0 mi SSE 4.6 mph - N/A   Partly Cloudy
9:52 PM 68.0 °F 57.9 °F 70% 30.04 in 10.0 mi South 5.8 mph - N/A   Clear
10:52 PM 68.0 °F 57.0 °F 68% 30.04 in 10.0 mi South 6.9 mph - N/A   Clear
11:52 PM 68.0 °F 55.0 °F 63% 30.02 in 10.0 mi South 8.1 mph - N/A   Clear